{"data":{"norad_id":65223,"epoch":"2026-09-20T10:51:22.794624Z","epoch_age_seconds":121772,"freshness":"FRESH","line1":"1 65223U 25176AB  26263.45234716  .00019494  00000+0  58630-3 0  9991","line2":"2 65223  53.1609 324.2286 0001705  52.0488 308.0669 15.34415010 62993","mean_motion":15.3441501,"eccentricity":0.0001705,"inclination_deg":53.1609,"raan_deg":324.2286,"arg_perigee_deg":52.0488,"mean_anomaly_deg":308.0669,"bstar":0.0005863,"rev_number":6299,"period_min":93.846840041013,"perigee_km":461.49227203305,"apogee_km":463.82498334209,"semimajor_km":6840.7956276876,"source":"CELESTRAK","updated_at":"2026-09-21T09:00:35.538795Z"}}